Location: Bachas
(43.2439°N, 0.9375°E)
Time: 17:59:10
(UTC+00:00)

SL-08 R/B - Pass Details

Date: 18 February 2020
Orbit: 943 x 1009 km, 83.0° (Epoch: 31 March)

Event Time Altitude Azimuth Distance (km) Brightness Sun altitude
Rises 06:04:04 0° 350° (N) 3,658 7.3 -9.2°
Reaches altitude 10° 06:06:35 10° 348° (NNW) 2,699 6.6 -8.7°
Maximum altitude 06:12:42 72° 266° (W) 1,000 4.4 -7.6°
Drops below altitude 10° 06:18:44 10° 183° (S) 2,654 6.9 -6.5°
Sets 06:21:12 0° 181° (S) 3,593 7.6 -6.1°
